This demonstration page uses our WeatherBlox Daily Observations layout. Learn more.

Left ArrowRight Arrow

39.51506, -84.39828

Hourly Observations for April 21, 2015

Temp ( °F °C ) Dew Point ( °F °C ) Humidity (%) Winds ( mph kmh ) Pressure ( in mb ) Visibility ( mi km ) Precip ( " mm )
12:15 am 00:15 Cloudy 49 9.7 34 1 55 55 WSW 12 19 29.8 1009 10 16.0934 N/A
12:35 am 00:35 Cloudy 49 9.6 33 0.6 54 54 W 9 15 29.83 1010 10 16.0934 N/A
12:55 am 00:55 Cloudy 49 9.6 33 0.7 54 54 WSW 8 13 29.83 1010 10 16.0934 N/A
1:15 am 01:15 Partly Cloudy 49 9.6 35 1.7 58 58 WSW 7 11 29.83 1010 10 16.0934 N/A
1:35 am 01:35 Partly Cloudy 49 9.6 37 2.8 63 63 WSW 6 9 29.83 1010 10 16.0934 N/A
1:55 am 01:55 Mostly Cloudy 47 8.2 37 2.5 68 68 SW 7 11 29.83 1010 10 16.0934 N/A
2:15 am 02:15 Mostly Cloudy 47 8.2 37 2.9 70 70 SW 8 13 29.83 1010 10 16.0934 N/A
2:35 am 02:35 Cloudy 49 9.6 39 4 68 68 SW 8 13 29.83 1010 10 16.0934 N/A
2:55 am 02:55 Cloudy 47 8.5 38 3.1 69 69 SW 8 13 29.83 1010 10 16.0934 N/A
3:15 am 03:15 Cloudy 47 8.4 37 2.8 68 68 SW 8 13 29.83 1010 10 16.0934 N/A
3:35 am 03:35 Cloudy 49 9.6 39 3.9 68 68 SW 9 15 29.83 1010 10 16.0934 N/A
3:55 am 03:55 Cloudy 49 9.6 37 2.7 62 62 SW 13 20 29.83 1010 10 16.0934 N/A
4:15 am 04:15 Mostly Cloudy 48 8.8 35 1.9 62 62 SW 9 15 29.83 1010 10 16.0934 N/A
4:35 am 04:35 Clear 47 8.2 34 1.1 61 61 SW 8 13 29.83 1010 10 16.0934 N/A
4:55 am 04:55 Clear 44 6.6 33 0.3 64 64 SW 8 13 29.83 1010 10 16.0934 N/A
5:15 am 05:15 Clear 46 7.7 35 1.5 65 65 SW 10 17 29.83 1010 10 16.0934 N/A
5:35 am 05:35 Clear 43 6.1 34 1.2 71 71 SSW 7 11 29.83 1010 10 16.0934 N/A
5:55 am 05:55 Clear 42 5.5 34 1.2 74 74 SW 6 9 29.83 1010 10 16.0934 N/A
6:15 am 06:15 Clear 43 6.1 35 1.6 73 73 SSW 8 13 29.83 1010 10 16.0934 N/A
6:35 am 06:35 Partly Cloudy 42 5.8 35 1.7 75 75 SSW 8 13 29.83 1010 10 16.0934 N/A
6:55 am 06:55 Partly Cloudy 43 6.1 35 1.8 74 74 SW 8 13 29.83 1010 10 16.0934 N/A
7:15 am 07:15 Sunny 44 6.5 35 1.8 72 72 SW 9 15 29.83 1010 10 16.0934 N/A
7:35 am 07:35 Sunny 47 8.2 37 2.7 69 69 SW 9 15 29.83 1010 10 16.0934 N/A
7:55 am 07:55 Sunny 47 8.4 36 2.2 65 65 SW 13 20 29.83 1010 10 16.0934 N/A
8:15 am 08:15 Sunny 49 9.6 36 2.3 61 61 SW 15 24 29.83 1010 10 16.0934 N/A
8:35 am 08:35 Sunny 49 9.6 35 1.4 57 57 SW 16 26 29.83 1010 10 16.0934 N/A
8:55 am 08:55 Sunny 50 9.9 33 0.8 53 53 WSW 17 28 29.83 1010 10 16.0934 N/A
9:15 am 09:15 Sunny 52 11 33 0.8 50 50 SW 17 28 29.83 1010 10 16.0934 N/A
9:35 am 09:35 Sunny 55 12.5 34 1 46 46 SW 15 24 29.83 1010 10 16.0934 N/A
9:55 am 09:55 Sunny 55 12.5 32 undefined 43 43 WSW 18 30 29.83 1010 10 16.0934 N/A
10:15 am 10:15 Sunny 55 12.5 31 -0.3 42 42 WSW 15 24 29.83 1010 10 16.0934 N/A
10:35 am 10:35 Sunny 57 13.8 31 -0.8 37 37 WSW 18 30 29.8 1009 10 16.0934 N/A
10:55 am 10:55 Sunny 57 13.8 27 -2.8 32 32 WSW 21 33 29.8 1009 10 16.0934 N/A
11:15 am 11:15 Partly Cloudy 58 14.4 24 -4.6 27 27 WSW 22 35 29.8 1009 10 16.0934 N/A
11:35 am 11:35 Partly Cloudy 60 15.3 26 -3.3 28 28 WSW 18 30 29.8 1009 10 16.0934 N/A
11:55 am 11:55 Sunny 60 15.3 21 -6.2 22 22 W 20 31 29.8 1009 10 16.0934 N/A
12:15 pm 12:15 Sunny 60 15.7 20 -6.8 21 21 W 23 37 29.77 1008 10 16.0934 N/A
12:35 pm 12:35 Sunny 61 15.9 16 -8.9 17 17 W 22 35 29.77 1008 10 16.0934 N/A
12:55 pm 12:55 Mostly Cloudy 60 15.3 16 -8.9 18 18 W 22 35 29.77 1008 10 16.0934 N/A
1:15 pm 13:15 Mostly Cloudy 60 15.3 19 -7.5 20 20 W 22 35 29.77 1008 10 16.0934 N/A
1:35 pm 13:35 Mostly Cloudy 61 16 18 -7.9 19 19 WSW 26 43 29.77 1008 10 16.0934 N/A
1:55 pm 13:55 Mostly Cloudy 61 16.3 11 -11.5 14 14 WSW 29 46 29.77 1008 10 16.0934 N/A
2:15 pm 14:15 Mostly Cloudy 62 16.4 11 -11.5 14 14 WSW 28 44 29.77 1008 10 16.0934 N/A
2:35 pm 14:35 Mostly Cloudy 62 16.6 12 -11.3 14 14 WSW 24 39 29.77 1008 10 16.0934 N/A
2:55 pm 14:55 Mostly Cloudy 61 16 10 -12 13 13 W 29 46 29.77 1008 10 16.0934 N/A
3:15 pm 15:15 Partly Cloudy 63 17 10 -12.5 12 12 WSW 28 44 29.77 1008 10 16.0934 N/A
3:35 pm 15:35 Partly Cloudy 62 16.7 13 -10.6 14 14 W 28 44 29.74 1007 10 16.0934 N/A
3:55 pm 15:55 Partly Cloudy 64 17.7 10 -12.2 12 12 W 29 46 29.74 1007 10 16.0934 N/A
4:15 pm 16:15 Partly Cloudy 64 17.9 14 -10.2 14 14 WSW 20 31 29.74 1007 10 16.0934 N/A
4:35 pm 16:35 Partly Cloudy 64 18 8 -13.1 11 11 W 18 30 29.74 1007 10 16.0934 N/A
4:55 pm 16:55 Partly Cloudy 63 17.2 15 -9.6 15 15 WSW 21 33 29.74 1007 10 16.0934 N/A
5:15 pm 17:15 Partly Cloudy 63 17 12 -10.9 14 14 WSW 22 35 29.74 1007 10 16.0934 N/A
5:35 pm 17:35 Partly Cloudy 62 16.8 12 -10.9 14 14 WSW 22 35 29.74 1007 10 16.0934 N/A
5:55 pm 17:55 Partly Cloudy 62 16.9 14 -9.8 15 15 WSW 24 39 29.74 1007 10 16.0934 N/A
6:15 pm 18:15 Partly Cloudy 63 17 13 -10.5 14 14 W 22 35 29.74 1007 10 16.0934 N/A
6:35 pm 18:35 Partly Cloudy 62 16.6 12 -11.1 14 14 WSW 23 37 29.74 1007 10 16.0934 N/A
6:55 pm 18:55 Partly Cloudy 62 16.6 13 -10.6 15 15 WSW 18 30 29.74 1007 10 16.0934 N/A
7:15 pm 19:15 Mostly Cloudy 61 16 14 -9.8 16 16 WSW 21 33 29.74 1007 10 16.0934 N/A
7:35 pm 19:35 Mostly Cloudy 61 16 13 -10.6 15 15 W 15 24 29.74 1007 10 16.0934 N/A
7:55 pm 19:55 Mostly Cloudy 61 16 13 -10.6 15 15 W 18 30 29.74 1007 10 16.0934 N/A
8:15 pm 20:15 Partly Cloudy 60 15.3 15 -9.3 18 18 WSW 13 20 29.74 1007 10 16.0934 N/A
8:35 pm 20:35 Clear 60 15.3 18 -7.7 20 20 WSW 9 15 29.74 1007 10 16.0934 N/A
8:55 pm 20:55 Clear 57 13.8 21 -5.9 25 25 SW 8 13 29.74 1007 10 16.0934 N/A
9:15 pm 21:15 Partly Cloudy 55 12.5 24 -4.7 30 30 WSW 8 13 29.74 1007 10 16.0934 N/A
9:35 pm 21:35 Partly Cloudy 55 12.5 27 -2.6 35 35 SW 7 11 29.74 1007 10 16.0934 N/A
9:55 pm 21:55 Clear 55 12.5 31 -0.6 41 41 SW 9 15 29.74 1007 10 16.0934 N/A
10:15 pm 22:15 Partly Cloudy 55 12.5 32 -0.2 42 42 SW 10 17 29.74 1007 10 16.0934 N/A
10:35 pm 22:35 Partly Cloudy 55 12.5 34 1.3 47 47 SW 9 15 29.74 1007 10 16.0934 N/A
10:55 pm 22:55 Partly Cloudy 55 12.5 35 1.9 49 49 SW 9 15 29.74 1007 10 16.0934 N/A
11:15 pm 23:15 Mostly Cloudy 55 12.5 34 1.2 46 46 SW 9 15 29.74 1007 10 16.0934 N/A
11:35 pm 23:35 Mostly Cloudy 55 12.5 34 1 46 46 SW 10 17 29.74 1007 10 16.0934 N/A
11:55 pm 23:55 Mostly Cloudy 56 13.2 33 0.3 41 41 WSW 14 22 29.71 1006 10 16.0934 N/A

Powered by AerisWeather